Regional Weather Roundup
Issued by NWS

Home | Current Version | Previous Version | Text Only | Print | Product List | Glossary Off
Versions: 1 2 3 4 5 6 7 8 9 10 11 12 13 14 15 16 17 18 19 20 21 22 23 24 25 26 27 28

000
ASUS45 KSLC 251410
RWRUT

UTAH REGIONAL WEATHER ROUNDUP
NATIONAL WEATHER SERVICE SALT LAKE CITY UT
800 AM MDT SUN JUN 25 2017

UTZ001>011-023>025-251500-

NORTHERN UTAH

CITY           SKY/WX    TMP DP  RH WIND       PRES   REMARKS
BRIGHAM CITY   SUNNY     62  43  49 NW7       30.21S
HILL AFB       SUNNY     62  39  43 SE18G25   30.23R
LOGAN          SUNNY     60  47  61 CALM      30.26R
OGDEN          SUNNY     67  40  37 S7        30.21R
SALT LAKE CITY SUNNY     71  42  35 SW3       30.19R
TOOELE VALLEY  SUNNY     70  37  30 S8        30.20R
WENDOVER         N/A     72  35  25 CALM      30.21R
HEBER CITY     SUNNY     55  37  50 CALM      30.33R
WEST JORDAN    SUNNY     70  47  43 N5        30.22S

$$

UTZ011>015-024>027-251500-

CENTRAL/NORTHEAST UTAH

CITY           SKY/WX    TMP DP  RH WIND       PRES   REMARKS
PROVO AIRPORT  SUNNY     63  41  44 SE5       30.24R
MOAB/CANYONLAN SUNNY     77  24  14 E8        30.16R
DELTA          SUNNY     64  28  25 N5        30.23R
PRICE          SUNNY     68  31  25 W3        30.27R
VERNAL         SUNNY     69  36  29 SE3       30.28R

$$

UTZ013>016-019>022-027-251500-

SOUTHERN UTAH

CITY           SKY/WX    TMP DP  RH WIND       PRES   REMARKS
BRYCE CANYON   MOSUNNY   53  28  38 W7        30.40R
CEDAR CITY     MOSUNNY   67  23  19 S5        30.26R
MILFORD        SUNNY     64  24  21 CALM      30.23R
ST GEORGE      SUNNY     84  25  11 SE6       30.02R
HANKSVILLE     MOSUNNY   68  21  17 CALM      30.20R
BLANDING       MOSUNNY   72  23  15 CALM      30.34R

$$

REGIONAL REPORTS     COLORADO/ARIZONA

CITY           SKY/WX    TMP DP  RH WIND       PRES   REMARKS
CRAIG, CO      SUNNY     53  36  52 W5        30.38R
GRAND JUNCTION SUNNY     70  31  23 SE15      30.23R
RIFLE, CO      SUNNY     59  32  36 N3        30.32R
MONTROSE, CO   SUNNY     63  35  35 S5        30.30S
CORTEZ, CO     SUNNY     59  34  39 E3        30.29R
COLORADO CITY    N/A     73  28  19 S6        30.20R
PAGE, AZ       MOSUNNY   78  28  16 NW6       30.11R
GRAND CANYON   CLOUDY    75  23  14 E10       30.29F
KINGMAN, AZ    PTSUNNY   83  33  16 CALM      30.01R
FLAGSTAFF, AZ  PTSUNNY   74  32  21 S12G20    30.35R

$$

REGIONAL REPORTS    NEVADA/IDAHO/WYOMING

CITY           SKY/WX    TMP DP  RH WIND       PRES   REMARKS
LAS VEGAS, NV  PTSUNNY   94  21   7 W9        29.90R
ELY, NY        MOSUNNY   52  25  35 S7        30.32S
ELKO, NV       SUNNY     60  34  37 E3        30.25R
POCATELLO, ID  SUNNY     56  45  66 CALM      30.26S
BURLEY, ID     SUNNY     57  46  66 CALM      30.22R
FORT BRIDGER,    N/A     55  34  45 NE6       30.46R
EVANSTON, WY   SUNNY     54  36  50 E8        30.41S
ROCK SPRINGS,  SUNNY     56  32  40 E13       30.42R
KEMMERER, WY     N/A     55  34  44 N8        30.45R

$$




USA.gov is the U.S. government's official web portal to all federal, state and local government web resources and services.